User: anonymous   Login
Location: Girdwood
(60.9430°N, 149.1660°W)
Time: 08:24:36
(UTC-08:00)
Language:

Iridium 86 - Orbit

View from above orbital plane
View from above orbital plane
View from above satellite
View from above satellite

Ground track
Ground track

The orbit data is extracted from the following two-line orbital elements,

1 25528U 98066B   14304.44726314  .00000564  00000-0  19446-3 0  2067
2 25528 086.3993 031.0435 0002068 114.4891 245.6521 14.34223578841807
Epoch (UTC): 31 October 2014 10:44:03
Eccentricity: 0.0002068
inclination: 86.3993°
perigee height: 776 km
apogee height: 779 km
right ascension of ascending node: 31.0435°
argument of perigee: 114.4891°
revolutions per day: 14.34223578
mean anomaly at epoch: 245.6521°
orbit number at epoch: 84180

The dashed part of the orbit path shows where the satellite is in the earth's shadow,  

DLR